sat.trackr.live / text

‹ back to catalog

FUNCUBE-1 (AO-73)

NORAD 39444 · 2013-066AE

PAYLOAD ACTIVE UNKNOWN

§ Identity

Operator
Country
UK
Launch date
2013-11-21
Launch site
DLS
Launch vehicle
Mass (kg)
RCS (m²)
0.06

Purposes: comms, tech_demo

External: N2YO · Heavens-Above · Gunter

§ Orbital elements

Epoch: 2026-09-18T21:16:03.557856Z

Period
95.32 min
Inclination
97.8389°
Eccentricity
0.0033773
Mean motion
15.10630929 rev/d
Perigee alt
510.9 km
Apogee alt
557.6 km
Semi-major
6,912.4 km
B*
3.1844e-4
RAAN
235.4218°
Arg perigee
243.5172°
Mean anomaly
116.2592°
Rev number
69,380

§ Raw data

FUNCUBE-1 (AO-73)1 39444U 13066AE  26261.88615229  .00005265  00000+0  31844-3 0  99982 39444  97.8389 235.4218 0033773 243.5172 116.2592 15.10630929693800

JSON: /api/v1/satellites/39444 · /tle

For live sub-satellite position, see the globe view (requires WebGL).

§ Visibility from observer

Set your observer location to see the next 7 days of passes ≥ 10°. The values pass through the URL so the page stays shareable.

No JS? Fill the form by hand. The geolocation button needs JavaScript.

§ Radio — SatNOGS DB

ModeDescriptionDownlinkUplink
BPSK BPSK Telemetry 145.935 MHz
CW CW Beacon 145.815 MHz
USB Mode U/V Linear 145.950 MHz–145.970 MHz 435.130 MHz–435.150 MHz

3 transmitters · refreshed weekly from db.satnogs.org